Time,TemperatureF,DewpointF,PressureIn,WindDirection,WindDirectionDegrees,WindSpeedMPH,WindSpeedGustMPH,Humidity,HourlyPrecipIn,Conditions,Clouds,dailyrainin,SoftwareType,DateUTC
2013-04-03 00:03:00,26.0,9.0,30.16,WNW,283,1.0,5.0,48,0.00,,,0.00,,2013-04-03 04:03:00,
2013-04-03 00:13:00,26.0,9.0,30.16,WNW,283,1.0,5.0,48,0.00,,,0.00,,2013-04-03 04:13:00,
2013-04-03 00:23:00,26.0,10.0,30.16,WNW,285,1.0,4.0,50,0.00,,,0.00,,2013-04-03 04:23:00,
2013-04-03 00:33:00,26.0,10.0,30.16,WNW,294,2.0,4.0,50,0.00,,,0.00,,2013-04-03 04:33:00,
2013-04-03 00:43:00,26.0,10.0,30.16,WNW,294,2.0,4.0,50,0.00,,,0.00,,2013-04-03 04:43:00,
2013-04-03 00:53:00,26.0,10.0,30.16,WNW,299,1.0,5.0,51,0.00,,,0.00,,2013-04-03 04:53:00,
2013-04-03 01:03:00,26.0,10.0,30.16,WNW,302,3.0,6.0,51,0.00,,,0.00,,2013-04-03 05:03:00,
2013-04-03 01:12:00,26.0,10.0,30.16,WNW,302,3.0,6.0,51,0.00,,,0.00,,2013-04-03 05:12:00,
2013-04-03 01:22:00,26.0,11.0,30.16,WNW,300,4.0,9.0,52,0.00,,,0.00,,2013-04-03 05:22:00,
2013-04-03 01:32:00,26.0,11.0,30.16,WNW,300,4.0,9.0,53,0.00,,,0.00,,2013-04-03 05:32:00,
2013-04-03 01:42:00,26.0,11.0,30.16,WNW,300,4.0,9.0,53,0.00,,,0.00,,2013-04-03 05:42:00,
2013-04-03 01:52:00,26.0,12.0,30.16,WNW,299,5.0,10.0,54,0.00,,,0.00,,2013-04-03 05:52:00,
2013-04-03 02:03:00,26.0,12.0,30.16,NNW,337,5.0,9.0,55,0.00,,,0.00,,2013-04-03 06:03:00,
2013-04-03 02:12:00,26.0,12.0,30.16,NNW,337,5.0,9.0,55,0.00,,,0.00,,2013-04-03 06:12:00,
2013-04-03 02:22:00,25.0,12.0,30.16,WNW,299,5.0,7.0,56,0.00,,,0.00,,2013-04-03 06:22:00,
2013-04-03 02:32:00,25.0,12.0,30.16,NW,321,5.0,7.0,57,0.00,,,0.00,,2013-04-03 06:32:00,
2013-04-03 02:42:00,25.0,12.0,30.16,NW,321,5.0,7.0,57,0.00,,,0.00,,2013-04-03 06:42:00,
2013-04-03 02:52:00,25.0,13.0,30.16,NW,317,7.0,12.0,60,0.00,,,0.00,,2013-04-03 06:52:00,
2013-04-03 03:02:00,25.0,13.0,30.16,NNW,333,6.0,13.0,61,0.00,,,0.00,,2013-04-03 07:02:00,
2013-04-03 03:12:00,25.0,13.0,30.16,NNW,333,6.0,13.0,61,0.00,,,0.00,,2013-04-03 07:12:00,
2013-04-03 03:23:00,25.0,14.0,30.16,NW,306,5.0,12.0,63,0.00,,,0.00,,2013-04-03 07:23:00,
2013-04-03 03:33:00,25.0,15.0,30.15,NW,307,6.0,11.0,65,0.00,,,0.00,,2013-04-03 07:33:00,
2013-04-03 03:42:00,25.0,15.0,30.15,NW,307,6.0,11.0,65,0.00,,,0.00,,2013-04-03 07:42:00,
2013-04-03 03:53:00,25.0,16.0,30.16,NW,325,7.0,13.0,67,0.00,,,0.00,,2013-04-03 07:53:00,
2013-04-03 04:03:00,24.0,15.0,30.15,WNW,302,6.0,14.0,68,0.00,,,0.00,,2013-04-03 08:03:00,
2013-04-03 04:12:00,24.0,15.0,30.15,WNW,302,6.0,14.0,68,0.00,,,0.00,,2013-04-03 08:12:00,
2013-04-03 04:22:00,25.0,16.0,30.16,NW,318,6.0,17.0,68,0.00,,,0.00,,2013-04-03 08:22:00,
2013-04-03 04:32:00,24.0,15.0,30.16,NW,315,8.0,13.0,69,0.00,,,0.00,,2013-04-03 08:32:00,
2013-04-03 04:43:00,24.0,15.0,30.16,NW,315,8.0,13.0,69,0.00,,,0.00,,2013-04-03 08:43:00,
2013-04-03 04:52:00,24.0,16.0,30.16,NW,307,5.0,10.0,70,0.00,,,0.00,,2013-04-03 08:52:00,
2013-04-03 05:02:00,24.0,16.0,30.17,WNW,293,5.0,8.0,71,0.00,,,0.00,,2013-04-03 09:02:00,
2013-04-03 05:12:00,24.0,16.0,30.17,WNW,293,5.0,8.0,71,0.00,,,0.00,,2013-04-03 09:12:00,
2013-04-03 05:22:00,24.0,16.0,30.17,NNW,340,5.0,10.0,72,0.00,,,0.00,,2013-04-03 09:22:00,
2013-04-03 05:33:00,24.0,16.0,30.18,NW,315,6.0,10.0,72,0.00,,,0.00,,2013-04-03 09:33:00,
2013-04-03 05:43:00,24.0,16.0,30.18,NW,315,6.0,10.0,72,0.00,,,0.00,,2013-04-03 09:43:00,
2013-04-03 05:53:00,24.0,17.0,30.19,WNW,303,5.0,12.0,73,0.00,,,0.00,,2013-04-03 09:53:00,
2013-04-03 06:03:00,24.0,17.0,30.19,NNW,330,7.0,15.0,75,0.00,,,0.00,,2013-04-03 10:03:00,
2013-04-03 06:12:00,24.0,17.0,30.19,NNW,330,7.0,15.0,75,0.00,,,0.00,,2013-04-03 10:12:00,
2013-04-03 06:22:00,23.0,17.0,30.20,NW,318,4.0,9.0,79,0.00,,,0.00,,2013-04-03 10:22:00,
2013-04-03 06:33:00,23.0,17.0,30.20,NW,312,4.0,10.0,79,0.00,,,0.00,,2013-04-03 10:33:00,
2013-04-03 06:43:00,23.0,17.0,30.20,NW,312,4.0,10.0,79,0.00,,,0.00,,2013-04-03 10:43:00,
2013-04-03 06:53:00,23.0,18.0,30.20,NNW,328,5.0,9.0,81,0.00,,,0.00,,2013-04-03 10:53:00,
2013-04-03 07:02:00,23.0,18.0,30.20,WNW,302,6.0,9.0,82,0.00,,,0.00,,2013-04-03 11:02:00,
2013-04-03 07:12:00,23.0,18.0,30.20,WNW,302,6.0,9.0,82,0.00,,,0.00,,2013-04-03 11:12:00,
2013-04-03 07:23:00,23.0,18.0,30.20,West,281,4.0,9.0,80,0.00,,,0.00,,2013-04-03 11:23:00,
2013-04-03 07:32:00,23.0,17.0,30.21,NW,318,4.0,12.0,77,0.00,,,0.00,,2013-04-03 11:32:00,
2013-04-03 07:42:00,23.0,17.0,30.21,NW,318,4.0,12.0,77,0.00,,,0.00,,2013-04-03 11:42:00,
2013-04-03 07:53:00,23.0,16.0,30.21,NW,319,8.0,15.0,74,0.00,,,0.00,,2013-04-03 11:53:00,
2013-04-03 08:02:00,23.0,15.0,30.22,North,353,6.0,13.0,71,0.00,,,0.00,,2013-04-03 12:02:00,
2013-04-03 08:13:00,23.0,15.0,30.22,North,353,6.0,13.0,71,0.00,,,0.00,,2013-04-03 12:13:00,
2013-04-03 08:22:00,24.0,16.0,30.22,NW,316,6.0,14.0,70,0.00,,,0.00,,2013-04-03 12:22:00,
2013-04-03 08:33:00,24.0,15.0,30.22,WNW,293,6.0,19.0,69,0.00,,,0.00,,2013-04-03 12:33:00,
2013-04-03 08:42:00,24.0,15.0,30.22,WNW,293,6.0,19.0,69,0.00,,,0.00,,2013-04-03 12:42:00,
2013-04-03 08:52:00,24.0,14.0,30.22,WNW,290,6.0,25.0,66,0.00,,,0.00,,2013-04-03 12:52:00,
2013-04-03 09:02:00,24.0,14.0,30.23,NW,326,4.0,12.0,64,0.00,,,0.00,,2013-04-03 13:02:00,
2013-04-03 09:12:00,24.0,14.0,30.23,NW,326,4.0,12.0,64,0.00,,,0.00,,2013-04-03 13:12:00,
2013-04-03 09:22:00,24.0,13.0,30.24,NE,42,4.0,14.0,63,0.00,,,0.00,,2013-04-03 13:22:00,
2013-04-03 09:32:00,25.0,13.0,30.23,NW,317,5.0,15.0,59,0.00,,,0.00,,2013-04-03 13:32:00,
2013-04-03 09:42:00,25.0,13.0,30.23,NW,317,5.0,15.0,59,0.00,,,0.00,,2013-04-03 13:42:00,
2013-04-03 09:52:00,25.0,11.0,30.23,NNE,20,10.0,17.0,54,0.00,,,0.00,,2013-04-03 13:52:00,
2013-04-03 10:02:00,25.0,11.0,30.23,NW,314,3.0,15.0,55,0.00,,,0.00,,2013-04-03 14:02:00,
2013-04-03 10:13:00,25.0,11.0,30.23,NW,314,3.0,15.0,55,0.00,,,0.00,,2013-04-03 14:13:00,
2013-04-03 10:22:00,26.0,10.0,30.23,NNW,332,6.0,12.0,51,0.00,,,0.00,,2013-04-03 14:22:00,
2013-04-03 10:32:00,26.0,10.0,30.23,NW,307,6.0,18.0,50,0.00,,,0.00,,2013-04-03 14:32:00,
2013-04-03 10:43:00,26.0,10.0,30.23,NW,307,6.0,18.0,50,0.00,,,0.00,,2013-04-03 14:43:00,
2013-04-03 10:52:00,27.0,10.0,30.23,NW,318,7.0,14.0,48,0.00,,,0.00,,2013-04-03 14:52:00,
2013-04-03 11:02:00,28.0,11.0,30.24,NW,312,6.0,13.0,49,0.00,,,0.00,,2013-04-03 15:02:00,
2013-04-03 11:12:00,28.0,11.0,30.24,NW,312,6.0,13.0,49,0.00,,,0.00,,2013-04-03 15:12:00,
2013-04-03 11:23:00,28.0,11.0,30.24,NNW,334,9.0,18.0,48,0.00,,,0.00,,2013-04-03 15:23:00,
2013-04-03 11:33:00,29.0,12.0,30.25,NW,314,4.0,13.0,49,0.00,,,0.00,,2013-04-03 15:33:00,
2013-04-03 11:43:00,29.0,12.0,30.25,NW,314,4.0,13.0,49,0.00,,,0.00,,2013-04-03 15:43:00,
2013-04-03 11:53:00,29.0,10.0,30.25,NNW,328,10.0,17.0,45,0.00,,,0.00,,2013-04-03 15:53:00,
2013-04-03 12:03:00,30.0,10.0,30.25,WSW,258,7.0,19.0,43,0.00,,,0.00,,2013-04-03 16:03:00,
2013-04-03 12:13:00,30.0,10.0,30.25,WSW,258,7.0,19.0,43,0.00,,,0.00,,2013-04-03 16:13:00,
2013-04-03 12:25:00,29.0,10.0,30.25,NW,318,8.0,17.0,44,0.00,,,0.00,,2013-04-03 16:25:00,
2013-04-03 12:33:00,30.0,11.0,30.24,NW,322,10.0,18.0,44,0.00,,,0.00,,2013-04-03 16:33:00,
2013-04-03 12:44:00,30.0,11.0,30.24,NW,322,10.0,18.0,44,0.00,,,0.00,,2013-04-03 16:44:00,
2013-04-03 12:53:00,30.0,10.0,30.26,NNW,332,8.0,19.0,43,0.00,,,0.00,,2013-04-03 16:53:00,
2013-04-03 13:03:00,30.0,11.0,30.26,NW,314,11.0,18.0,44,0.00,,,0.00,,2013-04-03 17:03:00,
2013-04-03 13:14:00,30.0,11.0,30.26,NW,314,11.0,18.0,44,0.00,,,0.00,,2013-04-03 17:14:00,
2013-04-03 13:23:00,30.0,11.0,30.26,NNW,342,9.0,19.0,44,0.00,,,0.00,,2013-04-03 17:23:00,
2013-04-03 13:33:00,31.0,10.0,30.26,NNW,345,11.0,18.0,40,0.00,,,0.00,,2013-04-03 17:33:00,
2013-04-03 13:46:00,31.0,10.0,30.26,NNW,345,11.0,18.0,40,0.00,,,0.00,,2013-04-03 17:46:00,
2013-04-03 13:54:00,31.0,9.0,30.26,NW,319,7.0,17.0,39,0.00,,,0.00,,2013-04-03 17:54:00,
2013-04-03 14:02:00,32.0,9.0,30.26,WNW,291,9.0,13.0,38,0.00,,,0.00,,2013-04-03 18:02:00,
2013-04-03 14:13:00,32.0,9.0,30.26,WNW,291,9.0,13.0,38,0.00,,,0.00,,2013-04-03 18:13:00,
2013-04-03 14:23:00,32.0,10.0,30.25,NNW,341,9.0,21.0,40,0.00,,,0.00,,2013-04-03 18:23:00,
2013-04-03 14:33:00,31.0,9.0,30.26,WNW,299,12.0,22.0,39,0.00,,,0.00,,2013-04-03 18:33:00,
2013-04-03 14:43:00,31.0,9.0,30.26,WNW,299,12.0,22.0,39,0.00,,,0.00,,2013-04-03 18:43:00,
2013-04-03 14:52:00,32.0,9.0,30.26,NNW,342,12.0,18.0,38,0.00,,,0.00,,2013-04-03 18:52:00,
2013-04-03 15:03:00,32.0,8.0,30.27,NW,312,12.0,22.0,36,0.00,,,0.00,,2013-04-03 19:03:00,
2013-04-03 15:12:00,32.0,8.0,30.27,NW,312,12.0,22.0,36,0.00,,,0.00,,2013-04-03 19:12:00,
2013-04-03 15:22:00,32.0,11.0,30.27,NW,311,10.0,22.0,41,0.00,,,0.00,,2013-04-03 19:22:00,
2013-04-03 15:32:00,33.0,11.0,30.27,NNW,336,10.0,23.0,39,0.00,,,0.00,,2013-04-03 19:32:00,
2013-04-03 15:42:00,33.0,11.0,30.27,NNW,336,10.0,23.0,39,0.00,,,0.00,,2013-04-03 19:42:00,
2013-04-03 15:52:00,33.0,12.0,30.27,WNW,300,5.0,19.0,42,0.00,,,0.00,,2013-04-03 19:52:00,
2013-04-03 16:02:00,33.0,10.0,30.28,NNW,341,12.0,23.0,37,0.00,,,0.00,,2013-04-03 20:02:00,
2013-04-03 16:13:00,33.0,10.0,30.28,NNW,341,12.0,23.0,37,0.00,,,0.00,,2013-04-03 20:13:00,
2013-04-03 16:23:00,32.0,13.0,30.28,WNW,283,14.0,28.0,44,0.00,,,0.00,,2013-04-03 20:23:00,
2013-04-03 16:33:00,33.0,12.0,30.28,NW,317,9.0,18.0,42,0.00,,,0.00,,2013-04-03 20:33:00,
2013-04-03 16:42:00,33.0,12.0,30.28,NW,317,9.0,18.0,42,0.00,,,0.00,,2013-04-03 20:42:00,
2013-04-03 16:53:00,32.0,11.0,30.29,NNW,334,11.0,22.0,41,0.00,,,0.00,,2013-04-03 20:53:00,
2013-04-03 17:02:00,32.0,11.0,30.29,NNW,334,11.0,22.0,41,0.00,,,0.00,,2013-04-03 21:02:00,
2013-04-03 17:12:00,32.0,11.0,30.29,NNW,334,11.0,22.0,41,0.00,,,0.00,,2013-04-03 21:12:00,
2013-04-03 17:22:00,34.0,8.0,30.29,NW,314,8.0,22.0,33,0.00,,,0.00,,2013-04-03 21:22:00,
2013-04-03 17:33:00,35.0,8.0,30.29,NNW,342,7.0,13.0,32,0.00,,,0.00,,2013-04-03 21:33:00,
2013-04-03 17:42:00,35.0,8.0,30.29,NNW,342,7.0,13.0,32,0.00,,,0.00,,2013-04-03 21:42:00,
2013-04-03 17:52:00,33.0,6.0,30.30,NW,314,8.0,18.0,31,0.00,,,0.00,,2013-04-03 21:52:00,
2013-04-03 18:02:00,33.0,6.0,30.31,NW,304,9.0,16.0,32,0.00,,,0.00,,2013-04-03 22:02:00,
2013-04-03 18:13:00,33.0,6.0,30.31,NW,304,9.0,16.0,32,0.00,,,0.00,,2013-04-03 22:13:00,
2013-04-03 18:22:00,33.0,7.0,30.32,North,349,6.0,15.0,33,0.00,,,0.00,,2013-04-03 22:22:00,
2013-04-03 18:33:00,31.0,7.0,30.33,NW,325,11.0,24.0,36,0.00,,,0.00,,2013-04-03 22:33:00,
2013-04-03 18:42:00,31.0,7.0,30.33,NW,325,11.0,24.0,36,0.00,,,0.00,,2013-04-03 22:42:00,
2013-04-03 18:52:00,30.0,7.0,30.33,NNW,333,12.0,19.0,37,0.00,,,0.00,,2013-04-03 22:52:00,
2013-04-03 19:02:00,30.0,7.0,30.35,NNW,328,11.0,16.0,37,0.00,,,0.00,,2013-04-03 23:02:00,
2013-04-03 19:12:00,30.0,7.0,30.35,NNW,328,11.0,16.0,37,0.00,,,0.00,,2013-04-03 23:12:00,
2013-04-03 19:22:00,30.0,9.0,30.35,WNW,290,8.0,19.0,40,0.00,,,0.00,,2013-04-03 23:22:00,
2013-04-03 19:32:00,30.0,10.0,30.36,NW,317,6.0,17.0,42,0.00,,,0.00,,2013-04-03 23:32:00,
2013-04-03 19:43:00,30.0,10.0,30.36,NW,317,6.0,17.0,42,0.00,,,0.00,,2013-04-03 23:43:00,
2013-04-03 19:54:00,29.0,9.0,30.37,NW,307,6.0,15.0,42,0.00,,,0.00,,2013-04-03 23:54:00,
2013-04-03 20:03:00,29.0,9.0,30.37,NW,307,6.0,15.0,42,0.00,,,0.00,,2013-04-04 00:03:00,
2013-04-03 20:12:00,29.0,9.0,30.37,NW,307,6.0,15.0,42,0.00,,,0.00,,2013-04-04 00:12:00,
2013-04-03 20:22:00,28.0,9.0,30.38,NW,308,5.0,10.0,45,0.00,,,0.00,,2013-04-04 00:22:00,
2013-04-03 20:32:00,28.0,10.0,30.38,NW,326,8.0,13.0,46,0.00,,,0.00,,2013-04-04 00:32:00,
2013-04-03 20:43:00,28.0,10.0,30.38,NW,326,8.0,13.0,46,0.00,,,0.00,,2013-04-04 00:43:00,
2013-04-03 20:52:00,28.0,11.0,30.39,North,358,9.0,13.0,49,0.00,,,0.00,,2013-04-04 00:52:00,
2013-04-03 21:02:00,27.0,11.0,30.39,NW,311,9.0,17.0,50,0.00,,,0.00,,2013-04-04 01:02:00,
2013-04-03 21:12:00,27.0,11.0,30.39,NW,311,9.0,17.0,50,0.00,,,0.00,,2013-04-04 01:12:00,
2013-04-03 21:22:00,27.0,11.0,30.40,NNW,348,6.0,12.0,51,0.00,,,0.00,,2013-04-04 01:22:00,
2013-04-03 21:32:00,27.0,11.0,30.40,NNW,337,9.0,14.0,51,0.00,,,0.00,,2013-04-04 01:32:00,
2013-04-03 21:43:00,27.0,11.0,30.40,NNW,337,9.0,14.0,51,0.00,,,0.00,,2013-04-04 01:43:00,
2013-04-03 21:53:00,27.0,12.0,30.41,NNW,330,8.0,13.0,53,0.00,,,0.00,,2013-04-04 01:53:00,
2013-04-03 22:02:00,26.0,12.0,30.41,NW,307,10.0,20.0,54,0.00,,,0.00,,2013-04-04 02:02:00,
2013-04-03 22:12:00,26.0,12.0,30.41,NW,307,10.0,20.0,54,0.00,,,0.00,,2013-04-04 02:12:00,
2013-04-03 22:22:00,26.0,11.0,30.42,NW,316,13.0,20.0,53,0.00,,,0.00,,2013-04-04 02:22:00,
2013-04-03 22:32:00,26.0,12.0,30.43,WNW,300,6.0,14.0,54,0.00,,,0.00,,2013-04-04 02:32:00,
2013-04-03 22:42:00,26.0,12.0,30.43,WNW,300,6.0,14.0,54,0.00,,,0.00,,2013-04-04 02:42:00,
2013-04-03 22:53:00,26.0,12.0,30.43,WNW,300,6.0,14.0,54,0.00,,,0.00,,2013-04-04 02:53:00,
2013-04-03 23:02:00,26.0,12.0,30.42,NW,322,5.0,19.0,55,0.00,,,0.00,,2013-04-04 03:02:00,
2013-04-03 23:12:00,26.0,12.0,30.42,NW,322,5.0,19.0,55,0.00,,,0.00,,2013-04-04 03:12:00,
2013-04-03 23:23:00,26.0,12.0,30.41,NNW,340,8.0,15.0,56,0.00,,,0.00,,2013-04-04 03:23:00,
2013-04-03 23:33:00,26.0,12.0,30.41,NNW,340,8.0,15.0,56,0.00,,,0.00,,2013-04-04 03:33:00,
2013-04-03 23:45:00,26.0,12.0,30.41,NNW,340,8.0,15.0,56,0.00,,,0.00,,2013-04-04 03:45:00,
2013-04-03 23:53:00,25.0,12.0,30.40,NNW,335,4.0,11.0,58,0.00,,,0.00,,2013-04-04 03:53:00,